This is the latest recevied weather packets stored in our database for station/object IT9CNT. If no packets are shown the sender has not sent any weather packets the latest 1 day(s).
| Time | Temp. | Humidity | Pressure | Rain* | Wind** | Luminosity | Snow |
|---|---|---|---|---|---|---|---|
| 1778048283 | 16.67° C | 78% | 1011.6 hPa | 0 mm | 3.58 m/s, 79° | - | - |
| 1778048223 | 16.67° C | 78% | 1011.7 hPa | 0 mm | 3.58 m/s, 83° | - | - |
| 1778048163 | 16.67° C | 78% | 1011.7 hPa | 0 mm | 3.58 m/s, 85° | - | - |
| 1778048103 | 16.67° C | 78% | 1011.4 hPa | 0 mm | 3.58 m/s, 93° | - | - |
| 1778048043 | 16.67° C | 78% | 1011.6 hPa | 0 mm | 3.58 m/s, 94° | - | - |
| 1778047983 | 16.67° C | 78% | 1011.6 hPa | 0 mm | 3.58 m/s, 94° | - | - |
| 1778047924 | 16.67° C | 78% | 1011.8 hPa | 0 mm | 3.58 m/s, 94° | - | - |
| 1778047863 | 16.67° C | 78% | 1011.6 hPa | 0 mm | 3.58 m/s, 92° | - | - |
| 1778047803 | 16.67° C | 78% | 1011.6 hPa | 0 mm | 3.58 m/s, 95° | - | - |
| 1778047743 | 16.67° C | 78% | 1011.7 hPa | 0 mm | 4.02 m/s, 96° | - | - |
| 1778047683 | 16.67° C | 78% | 1011.6 hPa | 0 mm | 4.02 m/s, 93° | - | - |
| 1778047574 | 16.67° C | 78% | 1011.4 hPa | 0 mm | 4.02 m/s, 91° | - | - |
| 1778047503 | 16.67° C | 78% | 1011.6 hPa | 0 mm | 4.02 m/s, 90° | - | - |
| 1778047444 | 16.67° C | 78% | 1011.8 hPa | 0 mm | 4.02 m/s, 86° | - | - |
| 1778047384 | 16.67° C | 78% | 1011.7 hPa | 0 mm | 4.02 m/s, 83° | - | - |
| 1778047323 | 16.67° C | 78% | 1011.9 hPa | 0 mm | 4.02 m/s, 82° | - | - |
| 1778047204 | 16.67° C | 78% | 1011.6 hPa | 0 mm | 4.02 m/s, 84° | - | - |
| 1778047143 | 16.67° C | 78% | 1011.8 hPa | 0 mm | 3.58 m/s, 81° | - | - |
| 1778047083 | 16.67° C | 78% | 1011.7 hPa | 0 mm | 3.58 m/s, 79° | - | - |
| 1778047023 | 16.67° C | 77% | 1011.7 hPa | 0 mm | 3.58 m/s, 79° | - | - |
| 1778046963 | 16.67° C | 77% | 1011.8 hPa | 0 mm | 3.58 m/s, 77° | - | - |
| 1778046903 | 16.67° C | 77% | 1011.6 hPa | 0 mm | 3.58 m/s, 77° | - | - |
| 1778046843 | 16.67° C | 77% | 1011.8 hPa | 0 mm | 3.58 m/s, 80° | - | - |
| 1778046783 | 16.67° C | 77% | 1011.4 hPa | 0 mm | 4.02 m/s, 83° | - | - |
| 1778046723 | 16.67° C | 77% | 1011.6 hPa | 0 mm | 4.02 m/s, 87° | - | - |
* Rain latest hour (hover to see other rain measurements)
** Current wind speed in m/s (hover to see current wind gust speed)